TimeCST,TemperatureF,Dew PointF,Humidity,Sea Level PressureIn,VisibilityMPH,Wind Direction,Wind SpeedMPH,Gust SpeedMPH,PrecipitationIn,Events,Conditions,WindDirDegrees,DateUTC
12:52 AM,35.1,27.0,72,29.88,7.0,ENE,10.4,-,N/A,,Mostly Cloudy,70,2013-02-26 06:52:00
1:52 AM,35.1,27.0,72,29.83,9.0,ENE,20.7,25.3,N/A,,Overcast,70,2013-02-26 07:52:00
2:52 AM,34.0,27.0,75,29.79,9.0,ENE,17.3,24.2,N/A,,Overcast,70,2013-02-26 08:52:00
3:52 AM,35.1,27.0,72,29.74,9.0,ENE,20.7,27.6,N/A,,Overcast,60,2013-02-26 09:52:00
4:52 AM,35.1,27.0,72,29.70,10.0,ENE,23.0,29.9,N/A,,Overcast,60,2013-02-26 10:52:00
5:52 AM,35.1,26.1,70,29.67,10.0,NE,19.6,28.8,N/A,,Overcast,50,2013-02-26 11:52:00
6:52 AM,35.1,27.0,72,29.68,10.0,ENE,18.4,25.3,N/A,,Overcast,70,2013-02-26 12:52:00
7:52 AM,35.1,27.0,72,29.67,10.0,ENE,24.2,35.7,N/A,,Overcast,60,2013-02-26 13:52:00
8:52 AM,35.1,26.1,70,29.64,10.0,NE,23.0,33.4,N/A,,Overcast,50,2013-02-26 14:52:00
9:52 AM,35.1,26.1,70,29.62,3.0,NE,18.4,31.1,0.00,Snow,Light Snow,50,2013-02-26 15:52:00
9:59 AM,35.6,26.6,70,29.61,1.0,NE,17.3,28.8,0.00,Snow,Light Snow,50,2013-02-26 15:59:00
10:08 AM,33.8,28.4,81,29.62,0.5,NE,21.9,32.2,0.00,Snow,Snow,50,2013-02-26 16:08:00
10:12 AM,33.8,28.4,81,29.61,0.2,NE,20.7,28.8,0.00,Fog-Snow,Snow,50,2013-02-26 16:12:00
10:26 AM,32.0,30.2,93,29.61,0.5,NE,16.1,-,0.02,Fog-Snow,Snow,50,2013-02-26 16:26:00
10:50 AM,33.8,30.2,87,29.60,0.5,NE,15.0,27.6,0.05,Fog-Snow,Snow,50,2013-02-26 16:50:00
10:52 AM,33.1,30.0,89,29.62,0.5,ENE,21.9,31.1,0.05,Fog-Snow,Snow,60,2013-02-26 16:52:00
11:03 AM,32.0,30.2,93,29.60,0.2,NE,17.3,27.6,0.01,Fog-Snow,Heavy Snow,50,2013-02-26 17:03:00
11:52 AM,32.0,30.0,92,29.60,0.2,NE,12.7,23.0,0.06,Fog-Snow,Heavy Snow,40,2013-02-26 17:52:00
12:21 PM,32.0,30.2,93,29.57,0.2,NE,17.3,27.6,0.04,Fog-Snow,Snow,40,2013-02-26 18:21:00
12:33 PM,32.0,30.2,93,29.56,0.2,NE,16.1,26.5,0.06,Fog-Snow,Heavy Snow,40,2013-02-26 18:33:00
12:52 PM,32.0,30.0,92,29.57,0.2,NE,13.8,29.9,0.08,Fog-Snow,Snow,40,2013-02-26 18:52:00
1:11 PM,32.0,30.2,93,29.55,0.2,NE,16.1,27.6,0.03,Fog-Snow,Snow,40,2013-02-26 19:11:00
1:31 PM,30.2,30.2,100,29.55,0.2,NE,19.6,27.6,0.05,Fog-Snow,Snow,40,2013-02-26 19:31:00
1:42 PM,30.2,30.2,100,29.55,0.2,NNE,13.8,25.3,0.06,Fog-Snow,Snow,30,2013-02-26 19:42:00
1:52 PM,30.9,30.0,96,29.57,0.2,NE,19.6,28.8,0.07,Fog-Snow,Snow,40,2013-02-26 19:52:00
2:21 PM,30.2,28.4,93,29.55,0.5,NE,15.0,26.5,0.02,Fog-Snow,Snow,40,2013-02-26 20:21:00
2:31 PM,30.2,30.2,100,29.55,0.2,NE,16.1,26.5,0.03,Fog-Snow,Snow,40,2013-02-26 20:31:00
2:52 PM,30.9,28.9,92,29.57,0.2,NE,16.1,24.2,0.04,Fog-Snow,Snow,40,2013-02-26 20:52:00
3:01 PM,32.0,28.4,87,29.55,0.5,NNE,15.0,23.0,0.01,Fog-Snow,Snow,30,2013-02-26 21:01:00
3:36 PM,32.0,28.4,87,29.57,0.8,NNE,15.0,23.0,0.02,Snow,Light Snow,30,2013-02-26 21:36:00
3:52 PM,32.0,28.0,85,29.59,0.8,NE,18.4,27.6,0.02,Snow,Light Snow,40,2013-02-26 21:52:00
3:54 PM,32.0,28.4,87,29.57,3.0,NNE,16.1,25.3,0.00,Snow,Light Snow,30,2013-02-26 21:54:00
4:06 PM,32.0,28.4,87,29.58,2.0,NNE,16.1,27.6,0.00,,Overcast,20,2013-02-26 22:06:00
4:38 PM,32.0,28.4,87,29.58,2.0,NNE,13.8,25.3,0.00,Snow,Light Snow,30,2013-02-26 22:38:00
4:52 PM,32.0,27.0,82,29.60,2.0,NNE,15.0,21.9,0.00,Snow,Light Snow,30,2013-02-26 22:52:00
5:36 PM,30.2,28.4,93,29.59,1.2,NNE,13.8,21.9,0.00,Snow,Light Snow,20,2013-02-26 23:36:00
5:52 PM,30.9,28.0,89,29.62,1.0,NNE,10.4,23.0,0.00,Snow,Light Snow,20,2013-02-26 23:52:00
6:00 PM,30.2,28.4,93,29.60,1.5,NNE,15.0,19.6,0.00,Snow,Light Snow,20,2013-02-27 00:00:00
6:07 PM,30.2,28.4,93,29.60,1.5,NNE,13.8,19.6,0.00,Snow,Light Snow,20,2013-02-27 00:07:00
6:12 PM,30.2,28.4,93,29.60,1.2,North,12.7,19.6,0.01,Snow,Light Snow,10,2013-02-27 00:12:00
6:27 PM,32.0,28.4,87,29.60,1.5,NNE,12.7,23.0,0.01,Snow,Light Snow,20,2013-02-27 00:27:00
6:36 PM,30.2,28.4,93,29.61,1.2,North,13.8,20.7,0.01,Snow,Light Snow,10,2013-02-27 00:36:00
6:52 PM,30.9,28.0,89,29.62,1.5,NNE,12.7,24.2,0.02,Snow,Light Snow,20,2013-02-27 00:52:00
7:14 PM,30.2,28.4,93,29.61,1.0,North,11.5,-,0.01,Snow,Light Snow,10,2013-02-27 01:14:00
7:48 PM,30.2,28.4,93,29.61,1.0,North,13.8,23.0,0.01,Snow,Light Snow,10,2013-02-27 01:48:00
7:52 PM,30.9,28.0,89,29.62,1.0,North,13.8,20.7,0.01,Snow,Light Snow,10,2013-02-27 01:52:00
7:56 PM,32.0,28.4,87,29.60,2.5,North,12.7,20.7,0.00,Snow,Light Snow,10,2013-02-27 01:56:00
8:44 PM,32.0,28.4,87,29.62,7.0,North,10.4,19.6,0.00,,Overcast,10,2013-02-27 02:44:00
8:52 PM,32.0,28.0,85,29.64,8.0,North,13.8,20.7,0.00,,Overcast,10,2013-02-27 02:52:00
9:52 PM,32.0,28.0,85,29.64,7.0,North,11.5,-,N/A,,Overcast,10,2013-02-27 03:52:00
10:52 PM,32.0,28.4,87,29.62,6.0,North,11.5,-,N/A,Snow,Light Snow,360,2013-02-27 04:52:00
11:52 PM,32.0,28.0,85,29.65,8.0,North,10.4,-,0.00,,Overcast,350,2013-02-27 05:52:00